Wind_Speed
8 11 13 14 14 15 16 17 19 19 20 21 22 24 26 27 29 29 30 31 32 33 34 35 36 37 38 38 39 39 40 41 42 42 43 43 43 43 43 44 44 45 45 45
8 11 13 15 16 16 17 18 19 20 20 21 22 24 24 25 27 28 29 30 31 31 32 33 34 35 36 37 38 38 39 39 40 40 41 42 42 42 42 42 42 43 43 43
9 11 13 14 15 15 16 17 18 20 20 21 23 23 23 24 25 26 27 28 30 31 31 32 32 33 34 35 36 37 37 38 38 39 39 39 40 40 40 41 41 41 41 41
11 12 12 11 13 15 16 18 19 19 20 21 22 23 23 24 25 25 26 27 28 29 30 30 31 32 33 33 34 35 36 37 37 38 38 39 39 39 39 39 39 39 39 39
12 12 12 12 13 15 16 16 17 19 19 20 21 22 23 24 25 25 25 26 27 28 29 29 30 31 31 32 32 34 35 35 36 36 36 37 37 37 37 37 37 38 38 37
14 14 13 12 13 15 16 16 16 18 19 19 20 21 22 23 24 24 25 26 26 27 28 29 29 30 30 31 31 32 32 33 33 34 34 34 35 35 35 35 35 36 36 35
15 15 14 13 13 15 16 16 17 18 18 19 20 20 21 21 22 22 23 24 25 26 27 27 28 29 29 29 30 30 30 30 31 32 32 32 32 32 32 33 33 33 33 32
17 16 15 15 14 16 17 18 18 18 18 19 19 20 20 20 21 21 22 22 23 24 25 26 26 27 27 27 27 28 28 29 29 29 29 29 29 30 30 30 30 30 30 31
17 17 17 16 16 17 17 18 18 19 19 19 20 20 21 21 21 21 21 21 22 22 24 25 25 26 26 26 26 26 26 27 27 27 28 28 28 28 28 29 29 29 29 29
17 17 17 17 18 18 18 18 18 19 19 20 20 21 21 21 22 22 21 21 21 21 22 23 24 25 25 26 26 26 26 26 26 26 26 26 27 27 27 28 28 29 29 29
18 17 18 17 18 19 19 20 20 20 19 20 20 21 21 21 22 22 21 21 21 21 22 22 23 24 24 25 25 26 26 26 26 26 26 26 26 27 27 27 28 28 28 29
18 18 18 18 18 19 20 20 21 21 21 21 21 21 22 22 22 22 22 22 22 23 23 23 23 24 24 24 25 25 25 25 26 26 26 26 26 26 27 27 28 28 28 29
18 18 19 19 19 19 20 21 22 22 22 22 23 23 23 22 23 23 22 23 23 23 23 23 24 24 24 24 24 25 25 25 25 26 26 26 26 26 27 27 27 28 28 28
17 18 19 20 20 20 20 21 22 22 22 23 23 23 23 23 23 23 23 23 23 23 23 23 24 24 24 24 24 25 25 25 25 26 26 26 27 27 27 27 27 27 28 28
18 18 19 20 20 20 21 21 22 23 23 24 24 24 24 24 23 23 23 23 24 24 24 24 25 25 25 25 25 26 26 27 27 27 26 27 27 27 27 27 28 28 28 28
19 19 19 19 20 20 20 20 21 22 23 24 24 25 25 25 24 24 24 24 24 24 24 25 25 26 26 26 27 27 27 27 28 28 28 28 28 28 28 28 29 29 29 29
20 20 19 19 19 20 20 21 21 21 22 22 23 24 24 25 24 24 24 24 24 25 25 25 26 26 27 27 27 28 28 28 28 28 29 29 29 29 29 29 30 30 30 31
21 20 19 19 20 21 20 20 20 20 21 21 22 22 23 24 25 25 25 25 25 25 25 25 25 26 26 27 27 27 28 28 28 28 29 29 29 30 30 31 31 31 31 32
22 21 21 20 20 21 21 21 21 21 21 22 22 22 23 24 24 25 25 25 25 25 26 26 26 26 26 26 26 27 27 27 27 28 28 29 29 29 30 31 31 32 32 33
23 23 23 22 21 21 21 22 22 22 22 21 22 22 23 23 23 23 24 25 25 25 26 26 26 26 26 26 26 27 27 27 27 28 28 29 29 30 30 30 31 32 32 33
23 24 24 24 23 22 22 22 22 22 23 22 22 22 23 23 23 23 23 23 24 24 24 24 25 25 26 26 26 27 27 27 27 28 28 28 29 30 30 31 31 32 32 33
23 23 24 24 24 23 22 22 22 22 22 22 22 22 23 23 23 23 23 23 23 23 24 24 24 25 25 26 26 27 27 27 27 27 28 28 29 29 30 30 31 31 31 32
23 23 23 24 24 24 23 23 22 22 22 22 22 22 22 22 22 22 22 23 23 23 23 24 24 25 26 26 26 27 27 27 28 28 28 29 29 29 29 29 30 30 31 31
24 24 23 23 24 24 24 24 24 23 23 23 22 22 22 22 22 22 22 22 23 23 24 24 25 25 26 26 27 27 27 27 28 28 28 28 29 29 29 29 29 30 31 32
25 25 25 24 24 24 24 24 24 23 23 23 22 22 22 22 22 22 22 23 23 23 24 24 25 25 26 26 26 27 27 27 27 28 28 28 28 28 29 29 30 30 31 32
25 24 23 23 23 23 22 22 21 21 22 22 22 22 22 22 22 22 22 23 23 23 24 25 25 25 25 25 26 26 27 27 28 28 28 28 29 29 29 30 30 31 31 32
24 23 22 22 22 22 22 21 21 21 22 22 22 22 22 22 22 22 23 22 22 23 23 24 24 25 25 25 25 26 26 27 27 27 28 28 28 29 29 30 30 31 32 34
Wind_Direction
235 230 230 231 226 226 230 230 232 228 227 227 230 231 233 234 235 237 239 240 242 244 246 247 249 250 251 253 254 255 256 257 258 259 260 261 263 264 265 266 266 266 267 267
245 239 240 240 235 236 235 233 233 232 231 229 231 232 234 236 237 239 241 242 243 246 247 249 251 252 253 254 255 256 256 258 259 260 260 261 262 264 265 265 266 266 266 267
265 254 255 255 246 240 237 235 236 237 237 236 235 237 238 238 239 240 242 244 245 247 249 250 252 254 254 255 256 256 257 258 259 260 261 261 262 263 264 265 265 265 266 266
279 270 266 262 245 239 239 240 241 242 242 240 240 239 240 240 241 241 243 245 246 248 250 252 253 254 255 256 257 257 258 259 260 261 261 261 262 263 264 264 264 265 266 266
281 279 275 265 251 240 239 243 243 242 241 242 242 241 242 244 244 244 245 247 248 249 251 252 253 254 256 257 257 258 259 260 260 260 261 261 262 263 264 264 264 265 265 266
280 280 276 266 252 242 242 245 242 241 242 242 241 242 244 246 246 246 247 249 251 251 251 252 254 255 257 258 259 259 260 260 260 260 261 261 262 263 263 264 264 265 265 266
279 276 271 264 253 246 245 246 244 243 242 242 241 242 243 244 246 247 248 250 251 252 252 253 255 256 257 258 259 260 260 261 261 260 261 262 262 262 262 263 263 264 265 266
278 272 268 261 254 247 248 249 249 248 246 244 243 243 243 244 246 247 249 250 251 252 252 254 255 256 256 257 259 260 260 260 260 260 260 261 261 261 261 262 263 263 264 265
278 271 266 261 256 251 251 251 252 252 251 248 246 246 246 247 248 250 250 251 252 253 254 254 255 256 256 257 258 259 260 260 260 260 261 261 261 261 261 261 261 263 264 266
278 269 264 260 255 252 251 251 252 253 252 250 249 249 249 249 250 251 252 252 253 254 255 255 255 256 256 257 257 259 260 260 260 260 261 262 261 261 262 262 263 264 266 267
277 269 262 260 257 254 252 251 251 253 252 250 250 249 249 250 251 252 253 253 253 253 255 256 256 256 257 258 258 259 259 259 260 261 262 263 262 262 263 264 265 265 266 267
276 268 263 260 257 256 255 254 253 254 255 253 252 251 251 251 252 253 253 254 255 256 257 257 258 258 259 259 259 260 261 262 262 261 262 263 263 264 264 265 266 266 267 268
275 269 265 261 260 260 258 255 254 255 254 254 254 253 253 252 253 254 254 255 256 257 258 259 259 259 260 260 260 261 263 264 264 263 262 263 264 265 266 267 267 267 267 267
277 271 267 264 263 262 261 258 257 256 255 255 254 254 254 253 254 254 255 255 256 258 259 260 260 260 261 261 262 262 262 264 265 265 264 264 265 266 266 266 267 268 269 268
277 274 271 267 265 265 265 262 260 258 257 256 256 256 255 255 255 256 256 257 258 259 260 260 261 262 262 262 263 263 263 264 265 265 265 265 265 266 266 267 267 268 269 269
274 273 272 270 267 266 265 265 262 261 260 258 257 256 256 257 257 258 258 259 260 261 262 262 263 263 263 263 264 264 264 264 265 265 265 266 266 266 267 267 267 268 268 268
272 272 270 270 268 267 266 266 264 262 261 259 258 257 257 257 258 259 260 260 261 262 263 264 265 265 265 265 265 265 265 265 266 266 266 266 267 267 267 267 268 269 269 269
271 271 271 270 268 266 264 264 263 262 260 260 260 259 258 258 258 259 261 261 262 263 264 265 266 267 267 267 267 266 266 267 268 268 268 268 268 268 268 268 268 269 270 270
268 268 271 273 271 267 265 264 264 263 264 263 261 260 259 259 259 259 261 262 263 264 265 266 267 268 268 267 267 267 267 267 268 269 269 269 269 269 270 270 270 270 271 272
271 269 270 272 271 269 266 265 263 263 263 264 263 262 260 259 259 260 261 262 263 265 266 267 267 268 267 267 267 267 267 268 269 270 271 271 270 270 271 271 272 272 272 273
273 270 269 269 270 270 268 265 262 262 262 263 264 263 260 259 260 261 262 263 264 266 267 268 268 268 268 268 268 267 268 269 270 271 272 272 272 272 272 273 273 274 274 275
273 270 268 267 267 268 267 265 263 262 262 263 264 264 262 260 259 260 262 264 265 266 268 270 270 270 269 269 269 268 269 270 271 271 272 273 274 274 274 274 275 275 276 276
275 271 269 267 265 265 265 264 263 261 262 262 264 264 263 260 259 260 263 265 267 268 270 272 272 271 271 271 270 270 270 271 272 272 273 273 274 275 275 275 276 277 278 279
275 272 269 269 266 263 263 263 262 261 261 262 263 263 262 260 261 262 264 267 270 271 272 273 274 273 273 272 272 271 272 273 273 274 274 274 275 275 276 277 278 279 280 281
275 273 271 269 267 265 265 264 263 261 261 262 262 262 262 261 262 264 266 270 272 272 273 275 277 276 276 275 274 273 272 273 273 274 274 274 275 275 276 278 280 281 282 283
275 273 269 267 266 264 263 263 262 260 261 261 261 261 261 262 263 265 267 270 273 274 275 276 277 277 277 276 275 274 273 274 275 275 276 276 276 277 278 280 281 283 284 285
273 268 265 264 263 263 260 259 260 260 261 261 261 261 262 263 264 265 268 271 273 276 277 278 279 278 277 276 276 276 276 276 276 276 276 277 277 278 280 281 283 285 286 287
Height
5618 5618 5619 5619 5621 5622 5623 5625 5627 5629 5632 5634 5636 5638 5641 5644 5647 5650 5654 5657 5659 5662 5665 5667 5670 5672 5674 5676 5677 5679 5680 5681 5683 5684 5685 5686 5686 5687 5688 5688 5689 5689 5689 5690
5616 5616 5616 5616 5618 5619 5620 5621 5623 5625 5628 5630 5631 5633 5636 5639 5642 5644 5647 5650 5652 5655 5657 5659 5661 5663 5665 5666 5668 5669 5670 5671 5672 5673 5674 5675 5676 5676 5677 5677 5677 5678 5678 5678
5614 5614 5613 5613 5615 5615 5616 5617 5619 5620 5624 5625 5627 5629 5631 5633 5636 5638 5640 5643 5645 5647 5649 5651 5653 5654 5656 5657 5658 5659 5660 5661 5662 5663 5664 5664 5665 5666 5666 5666 5667 5667 5667 5667
5610 5610 5609 5612 5609 5610 5611 5613 5614 5616 5618 5619 5621 5624 5626 5628 5630 5632 5634 5636 5637 5639 5641 5643 5644 5646 5647 5648 5649 5650 5651 5651 5652 5653 5654 5654 5655 5655 5656 5656 5656 5657 5657 5657
5607 5605 5605 5606 5605 5605 5607 5608 5610 5611 5613 5614 5616 5618 5620 5621 5623 5625 5627 5629 5630 5632 5633 5635 5636 5637 5638 5639 5640 5640 5641 5642 5642 5643 5644 5644 5645 5645 5646 5646 5646 5646 5647 5647
5603 5601 5601 5603 5601 5601 5603 5604 5605 5606 5607 5609 5611 5613 5615 5616 5617 5619 5620 5622 5623 5624 5625 5627 5628 5629 5630 5630 5631 5631 5632 5633 5633 5634 5634 5635 5635 5636 5636 5636 5636 5637 5637 5637
5598 5597 5597 5598 5597 5598 5600 5601 5600 5601 5602 5603 5605 5607 5609 5609 5611 5612 5613 5614 5615 5617 5618 5619 5620 5621 5621 5622 5622 5623 5623 5624 5624 5625 5625 5626 5626 5626 5627 5627 5627 5628 5628 5628
5593 5593 5594 5593 5593 5594 5594 5594 5595 5596 5597 5598 5599 5601 5602 5603 5605 5606 5607 5608 5608 5609 5610 5611 5612 5613 5614 5614 5615 5615 5615 5616 5616 5617 5617 5617 5617 5618 5618 5618 5619 5619 5619 5619
5589 5589 5587 5587 5587 5588 5588 5589 5590 5590 5592 5593 5594 5595 5596 5597 5598 5599 5600 5601 5602 5602 5603 5604 5605 5605 5606 5607 5607 5608 5608 5608 5608 5609 5609 5609 5609 5610 5610 5610 5611 5611 5611 5611
5582 5582 5582 5581 5581 5582 5583 5584 5584 5585 5586 5587 5588 5589 5590 5591 5592 5593 5594 5594 5595 5596 5596 5597 5598 5598 5599 5599 5600 5600 5601 5601 5601 5601 5601 5602 5602 5602 5602 5602 5602 5603 5603 5603
5576 5576 5575 5576 5575 5576 5576 5577 5578 5579 5580 5581 5582 5583 5584 5585 5585 5586 5587 5588 5589 5589 5590 5590 5591 5591 5592 5592 5593 5593 5593 5593 5594 5594 5594 5594 5594 5594 5594 5595 5594 5595 5594 5594
5570 5570 5569 5570 5569 5570 5570 5571 5572 5573 5574 5574 5575 5576 5577 5578 5579 5579 5580 5581 5582 5582 5583 5583 5584 5584 5585 5585 5585 5586 5586 5586 5586 5586 5586 5586 5586 5587 5586 5586 5586 5586 5586 5586
5564 5563 5563 5563 5564 5564 5564 5564 5565 5566 5567 5568 5569 5569 5570 5571 5572 5573 5573 5574 5575 5575 5576 5576 5576 5577 5577 5578 5578 5578 5579 5579 5579 5578 5578 5579 5579 5579 5579 5579 5578 5578 5577 5577
5558 5557 5557 5557 5557 5557 5557 5557 5558 5559 5560 5561 5561 5562 5563 5564 5565 5565 5566 5567 5568 5568 5569 5569 5569 5570 5570 5570 5570 5571 5571 5571 5571 5571 5571 5571 5571 5571 5571 5570 5570 5570 5569 5569
5553 5551 5551 5551 5551 5551 5550 5550 5551 5551 5552 5553 5554 5555 5556 5556 5557 5558 5559 5559 5560 5561 5561 5561 5562 5562 5562 5563 5563 5563 5563 5563 5563 5563 5563 5563 5563 5562 5562 5562 5562 5561 5561 5560
5546 5545 5545 5544 5544 5544 5544 5544 5544 5544 5544 5545 5546 5547 5548 5549 5550 5550 5551 5552 5552 5553 5553 5554 5554 5554 5554 5554 5555 5555 5555 5555 5555 5555 5554 5554 5554 5554 5554 5553 5553 5553 5553 5552
5540 5539 5538 5538 5537 5537 5537 5537 5537 5537 5537 5538 5538 5539 5540 5541 5542 5542 5543 5544 5544 5545 5545 5545 5546 5546 5546 5546 5546 5546 5546 5546 5546 5546 5546 5545 5545 5545 5545 5544 5544 5544 5543 5543
5533 5532 5531 5531 5530 5530 5530 5530 5530 5530 5531 5531 5531 5531 5532 5532 5533 5534 5535 5536 5536 5537 5537 5537 5537 5537 5537 5537 5537 5537 5537 5537 5537 5537 5536 5536 5536 5535 5535 5535 5535 5534 5534 5533
5525 5525 5524 5524 5523 5523 5523 5523 5523 5523 5523 5523 5524 5524 5524 5525 5525 5526 5527 5528 5528 5529 5529 5529 5529 5529 5529 5529 5529 5529 5528 5528 5528 5528 5527 5527 5526 5526 5526 5525 5525 5524 5523 5523
5518 5517 5517 5517 5516 5515 5515 5515 5516 5516 5516 5516 5516 5517 5517 5517 5518 5519 5519 5520 5520 5520 5520 5520 5520 5520 5520 5520 5520 5520 5520 5519 5519 5519 5518 5517 5517 5517 5516 5516 5515 5514 5513 5513
5509 5509 5509 5509 5508 5508 5507 5507 5508 5508 5508 5508 5509 5509 5509 5510 5510 5511 5511 5512 5512 5512 5512 5512 5512 5512 5512 5511 5511 5511 5511 5511 5510 5510 5509 5508 5508 5507 5506 5506 5505 5504 5503 5502
5501 5500 5500 5500 5500 5500 5499 5499 5499 5500 5500 5500 5501 5501 5501 5502 5502 5503 5503 5504 5504 5504 5504 5504 5503 5503 5503 5503 5503 5502 5502 5502 5501 5501 5500 5499 5499 5498 5497 5496 5495 5494 5493 5492
5492 5492 5491 5491 5491 5491 5491 5491 5491 5492 5492 5493 5493 5493 5493 5494 5494 5495 5496 5496 5496 5496 5495 5495 5495 5495 5494 5494 5494 5493 5493 5493 5492 5492 5491 5490 5489 5488 5487 5486 5485 5484 5483 5481
5483 5482 5482 5482 5482 5482 5482 5482 5483 5483 5484 5485 5485 5485 5486 5486 5487 5487 5488 5488 5488 5487 5487 5487 5486 5486 5485 5485 5485 5484 5484 5483 5483 5482 5481 5481 5480 5479 5478 5477 5476 5474 5473 5471
5473 5473 5473 5473 5473 5473 5473 5474 5474 5475 5476 5476 5477 5477 5478 5479 5479 5480 5480 5480 5480 5479 5479 5478 5478 5477 5476 5476 5475 5475 5475 5474 5474 5473 5472 5471 5470 5469 5468 5467 5466 5464 5462 5460
5463 5463 5463 5463 5464 5464 5465 5465 5466 5467 5467 5468 5469 5470 5470 5471 5471 5472 5472 5472 5471 5471 5470 5470 5469 5468 5467 5467 5466 5466 5465 5465 5464 5463 5462 5462 5461 5460 5458 5457 5455 5454 5451 5449
5454 5454 5454 5455 5455 5456 5456 5457 5458 5459 5460 5460 5461 5462 5463 5463 5464 5464 5464 5464 5463 5463 5462 5461 5460 5459 5458 5458 5457 5456 5455 5455 5454 5454 5453 5452 5451 5449 5448 5447 5445 5443 5440 5438